"America/Chicago Time","Lifetime Energy (kWh)","Power (W)","AC Volts RMS (V) ","AC Amps RMS (mA)","Grid Frequency (Hz)","Inverter Temperature (C)"
"05/09/12 09:27:10","72.6555","139.0","216.95","646","60.0","22"
"05/09/12 09:32:10","72.6665","141.9","216.83","653","60.03","22"
"05/09/12 09:37:10","72.6775","143.8","216.51","665","60.03","23"
"05/09/12 09:42:10","72.6889","147.1","216.76","683","60.03","23"
"05/09/12 09:47:10","72.7005","149.6","217.02","694","60.03","23"
"05/09/12 09:52:09","72.7123","152.0","217.0","701","60.03","23"
"05/09/12 09:57:10","72.7242","156.2","217.31","722","60.03","24"
"05/09/12 10:02:09","72.7365","159.3","217.84","733","60.07","24"
"05/09/12 10:07:10","72.749","161.0","217.74","741","59.96","24"
"05/09/12 10:12:09","72.7615","165.0","217.49","760","60.0","24"
"05/09/12 10:17:10","72.7745","167.2","217.66","768","60.0","25"
"05/09/12 10:22:10","72.7875","167.7","217.56","763","60.03","25"
"05/09/12 10:27:10","72.8006","168.1","217.23","773","60.0","25"
"05/09/12 10:32:09","72.8139","171.3","217.86","777","59.96","25"
"05/09/12 10:37:09","72.8272","172.7","217.5","790","60.03","26"
"05/09/12 10:42:10","72.8408","173.9","217.67","791","60.0","26"
"05/09/12 10:47:10","72.8544","176.2","217.41","803","60.03","26"
"05/09/12 10:52:10","72.8682","176.5","217.84","806","60.03","26"
"05/09/12 10:57:10","72.882","177.8","218.36","810","60.03","27"
"05/09/12 11:02:10","72.896","180.0","218.64","816","60.0","27"
"05/09/12 11:07:11","72.9101","183.4","217.14","835","60.03","26"
"05/09/12 11:12:09","72.9244","183.4","217.71","833","60.03","27"
"05/09/12 11:17:10","72.9387","183.8","217.86","839","60.0","27"
"05/09/12 11:22:10","72.9532","185.8","217.37","848","60.03","27"
"05/09/12 11:27:09","72.9675","186.4","217.82","848","60.03","27"
"05/09/12 11:32:10","72.9822","187.5","217.23","846","60.0","27"
"05/09/12 11:37:10","72.9968","187.0","217.22","847","60.0","27"
"05/09/12 11:42:09","73.0114","187.9","217.24","853","60.03","28"
"05/09/12 11:47:11","73.0261","190.7","217.42","869","60.0","27"
"05/09/12 11:52:10","73.0409","189.3","217.44","859","60.03","28"
"05/09/12 11:57:09","73.0558","191.3","217.24","875","60.03","28"
"05/09/12 12:02:09","73.0709","194.5","217.81","880","60.0","28"
"05/09/12 12:07:10","73.0861","193.2","217.55","876","60.03","29"
"05/09/12 12:12:09","73.1012","194.9","217.69","885","60.03","28"
"05/09/12 12:17:10","73.1164","194.9","218.05","882","60.03","28"
"05/09/12 12:22:10","73.1316","193.5","217.56","880","60.03","28"
"05/09/12 12:27:09","73.1465","193.3","217.53","878","60.03","28"
"05/09/12 12:32:09","73.1617","194.3","217.32","886","60.0","28"
"05/09/12 12:37:11","73.1767","191.7","217.88","871","60.03","28"
"05/09/12 12:42:09","73.1917","193.6","216.56","880","60.0","27"
"05/09/12 12:47:09","73.2068","194.6","216.75","887","60.03","27"
"05/09/12 12:52:10","73.2221","193.7","216.65","882","60.0","27"
"05/09/12 12:57:10","73.237","195.0","218.12","883","60.0","26"
"05/09/12 13:02:11","73.2523","193.8","218.22","878","60.03","26"
"05/09/12 13:07:09","73.2671","189.7","217.74","864","60.07","26"
"05/09/12 13:12:10","73.2818","188.7","218.15","857","60.03","27"
"05/09/12 13:17:10","73.2965","188.4","217.07","861","60.0","27"
"05/09/12 13:22:11","73.3112","188.7","216.3","862","60.0","27"
"05/09/12 13:27:10","73.3258","188.4","217.13","859","60.03","27"
"05/09/12 13:32:09","73.3404","187.1","216.74","855","60.0","27"
"05/09/12 13:37:10","73.355","186.3","216.48","851","60.03","27"
"05/09/12 13:42:10","73.3695","184.2","216.49","843","60.03","27"
"05/09/12 13:47:10","73.3839","186.8","216.79","850","60.0","26"
"05/09/12 13:52:11","73.3984","182.3","216.12","834","60.03","26"
"05/09/12 13:57:10","73.4125","180.9","217.08","822","60.03","26"
"05/09/12 14:02:09","73.4265","181.2","216.78","823","60.0","26"
"05/09/12 14:07:09","73.4405","177.9","215.56","817","60.0","26"
"05/09/12 14:12:10","73.4544","177.7","216.18","818","60.03","26"
"05/09/12 14:17:09","73.468","174.8","216.75","803","60.03","26"
"05/09/12 14:22:11","73.4817","172.8","216.81","792","60.03","26"
"05/09/12 14:27:09","73.495","171.4","217.58","781","60.0","26"
"05/09/12 14:32:09","73.5083","168.2","217.16","771","60.0","26"
"05/09/12 14:37:10","73.5212","165.7","217.03","764","60.03","27"
"05/09/12 14:42:10","73.5342","164.3","217.04","753","60.03","27"
"05/09/12 14:47:09","73.5469","163.8","216.67","754","60.0","26"
"05/09/12 14:52:11","73.5597","163.2","216.02","751","60.0","25"
"05/09/12 14:57:10","73.5723","159.4","216.15","738","60.07","25"
"05/09/12 15:02:10","73.5846","156.4","216.67","724","60.03","25"
"05/09/12 15:07:10","73.5967","154.8","216.47","714","60.03","25"
"05/09/12 15:12:10","73.6086","149.7","216.95","691","60.0","26"
"05/09/12 15:17:10","73.6201","147.9","216.78","683","60.03","25"
"05/09/12 15:22:11","73.6316","145.5","216.78","678","60.0","25"
"05/09/12 15:27:09","73.6427","143.0","217.32","662","60.0","25"
"05/09/12 15:32:11","73.6538","140.5","216.76","655","60.03","25"
"05/09/12 15:37:10","73.6646","137.7","216.88","641","60.03","25"
"05/09/12 15:42:09","73.6752","133.7","216.8","623","60.03","25"
"05/09/12 15:47:10","73.6855","131.7","216.42","614","60.03","25"
"05/09/12 15:52:10","73.6957","128.6","217.18","601","60.03","25"
"05/09/12 15:57:10","73.7055","125.9","217.12","591","60.03","24"
"05/09/12 16:02:10","73.7152","122.5","216.9","573","60.03","24"
"05/09/12 16:07:10","73.7245","119.1","217.22","561","60.0","24"
"05/09/12 16:12:10","73.7337","115.0","216.88","544","60.03","24"
"05/09/12 16:17:10","73.7425","111.1","216.72","525","60.03","24"
"05/09/12 16:22:11","73.7511","107.9","216.18","513","60.03","24"
"05/09/12 16:27:10","73.7592","103.7","215.96","500","60.03","24"
"05/09/12 16:32:10","73.7672","100.9","216.12","484","60.03","23"
"05/09/12 16:37:09","73.7749","97.4","215.24","468","60.0","23"
"05/09/12 16:42:10","73.7823","93.0","215.25","454","60.03","22"
"05/09/12 16:47:10","73.7894","89.3","215.68","436","60.03","22"
"05/09/12 16:52:10","73.7962","84.9","215.01","417","60.03","22"
"05/09/12 16:57:10","73.8027","80.4","215.74","397","60.07","22"
"05/09/12 17:02:10","73.8088","76.4","215.42","381","60.03","22"
"05/09/12 17:07:10","73.8145","72.2","215.19","360","60.0","22"
"05/09/12 17:12:13","73.82","67.8","214.84","344","60.0","22"
"05/09/12 17:17:14","73.8251","63.8","215.08","325","60.03","22"
"05/09/12 17:22:13","73.8299","65.6","215.48","268","60.03","22"
"05/09/12 17:27:14","73.8343","57.4","215.01","404","60.03","22"
"05/09/12 17:32:15","73.8384","64.3","214.74","344","60.0","21"
"05/09/12 17:37:14","73.8421","39.8","214.06","108","60.03","21"
"05/09/12 17:42:13","73.8456","47.5","213.82","336","60.07","21"
"05/09/12 17:47:14","73.8487","32.5","214.66","321","60.03","20"
"05/09/12 17:52:14","73.8513","37.4","214.19","255","60.03","20"
"05/09/12 17:57:15","73.8538","31.7","214.25","231","60.03","20"
"05/09/12 18:02:13","73.856","35.5","213.58","91","60.03","20"
"05/09/12 18:07:15","73.8578","19.0","213.74","238","60.0","19"
"05/09/12 18:12:14","73.8595","18.4","213.84","206","60.03","19"
"05/09/12 18:17:14","73.8608","24.4","213.3","222","60.0","19"
"05/09/12 18:22:13","73.862","12.8","212.88","49","60.03","18"
"05/09/12 18:27:14","73.8629","13.8","213.43","57","60.03","18"
"05/09/12 18:32:13","73.8637","3.6","213.88","149","60.0","18"
"05/09/12 18:37:14","73.8643","13.1","213.7","5","60.03","18"
"05/09/12 18:42:15","73.8648","0.0","214.06","0","60.07","18"
"05/09/12 18:47:13","73.8651","14.1","213.54","14","60.0","18"
"05/09/12 18:52:14","73.8655","14.1","213.44","0","60.03","17"
"05/09/12 18:57:15","73.8658","0.0","212.81","0","60.0","17"
"05/09/12 19:02:13","73.8661","10.4","213.89","20","60.03","17"
"05/09/12 19:07:15","73.8663","14.0","213.4","16","60.0","17"
"05/09/12 19:12:14","73.8665","0.0","213.76","0","60.03","15"
"05/09/12 19:17:14","73.8665","0.0","212.9","0","60.03","15"
"05/09/12 19:22:17","73.8666","0.0","213.31","0","60.03","15"
"05/10/12 06:17:17","73.8666","0.0","212.89","0","60.0","10"
"05/10/12 06:22:14","73.8668","13.1","213.6","16","60.07","11"
"05/10/12 06:27:17","73.8672","11.9","213.4","47","60.03","11"
"05/10/12 06:32:17","73.8676","13.7","213.82","4","60.03","11"
"05/10/12 06:37:14","73.8683","15.3","213.53","5","60.03","12"
"05/10/12 06:42:14","73.8692","10.7","213.51","80","60.03","12"
"05/10/12 06:47:14","73.8704","12.5","213.43","5","60.07","13"
"05/10/12 06:52:14","73.8718","27.7","213.05","97","60.03","13"
"05/10/12 06:57:14","73.8735","18.2","213.99","25","60.07","13"
"05/10/12 07:02:15","73.8754","30.7","214.09","158","60.0","14"
"05/10/12 07:07:15","73.8777","27.2","214.04","105","60.03","14"
"05/10/12 07:12:15","73.8802","38.9","215.3","146","60.0","15"
"05/10/12 07:17:14","73.883","44.2","214.36","104","60.03","15"
"05/10/12 07:22:15","73.8862","46.8","214.47","293","60.03","16"
"05/10/12 07:27:14","73.8896","41.2","214.29","185","60.03","16"
"05/10/12 07:32:15","73.8934","60.7","213.94","119","60.03","17"
"05/10/12 07:37:14","73.8975","48.6","213.91","424","60.0","17"
"05/10/12 07:42:14","73.9015","56.3","213.31","318","60.0","17"
"05/10/12 07:47:15","73.9055","45.0","213.69","391","60.03","18"
"05/10/12 07:52:14","73.9106","68.3","215.02","343","60.07","18"
"05/10/12 07:57:15","73.9161","72.4","214.96","365","60.0","19"
"05/10/12 08:02:15","73.9218","76.6","215.69","382","60.03","19"
"05/10/12 08:07:14","73.9279","80.5","215.23","400","60.03","19"
"05/10/12 08:12:15","73.9343","84.5","215.58","413","60.03","20"
"05/10/12 08:17:15","73.9411","88.5","214.82","434","60.03","20"
"05/10/12 08:22:15","73.9481","92.9","214.49","451","60.0","20"
"05/10/12 08:27:16","73.9555","96.8","213.83","469","60.0","21"
"05/10/12 08:32:15","73.9632","100.3","213.93","488","60.03","22"
"05/10/12 08:37:14","73.9711","104.0","214.48","502","60.0","22"
"05/10/12 08:42:15","73.9793","107.9","214.55","516","60.0","22"
"05/10/12 08:47:15","73.9879","111.3","213.92","535","60.0","23"
"05/10/12 08:52:15","73.9966","114.6","213.93","551","60.07","23"
"05/10/12 08:57:15","74.0057","118.4","215.03","562","60.03","24"
"05/10/12 09:02:15","74.0151","121.9","214.87","573","60.0","24"
"05/10/12 09:07:15","74.0247","124.7","214.53","592","60.03","24"
"05/10/12 09:12:15","74.0345","127.4","214.83","601","60.03","25"
"05/10/12 09:17:15","74.0446","130.8","216.49","610","60.0","25"
"05/10/12 09:22:15","74.0549","134.4","216.33","629","60.0","25"
"05/10/12 09:27:15","74.0655","137.0","216.59","639","60.0","26"
"05/10/12 09:32:14","74.0762","139.6","216.19","653","60.03","26"
"05/10/12 09:37:15","74.0872","143.0","215.68","665","60.03","26"
"05/10/12 09:42:14","74.0984","144.4","216.58","673","60.03","26"
"05/10/12 09:47:14","74.1098","147.7","216.61","685","60.03","27"
"05/10/12 09:52:15","74.1214","150.1","216.48","697","60.03","27"
"05/10/12 09:57:14","74.1332","151.5","215.74","702","60.03","27"
"05/10/12 10:02:14","74.1451","154.4","216.0","715","60.03","28"
"05/10/12 10:07:14","74.1572","156.4","216.36","719","60.03","28"
"05/10/12 10:12:15","74.1695","158.6","215.93","734","60.0","28"
"05/10/12 10:17:15","74.182","160.7","217.13","740","60.0","29"
"05/10/12 10:22:14","74.1945","162.7","216.98","742","60.03","29"
"05/10/12 10:27:14","74.2073","164.0","217.12","752","60.03","29"
"05/10/12 10:32:16","74.2202","165.6","217.37","753","60.0","30"
"05/10/12 10:37:15","74.2332","167.2","216.44","769","60.0","30"
"05/10/12 10:42:14","74.2461","168.5","216.37","772","60.03","31"
"05/10/12 10:47:15","74.2594","171.1","217.25","779","60.03","31"
"05/10/12 10:52:14","74.2727","172.5","217.36","790","60.03","31"
"05/10/12 10:57:14","74.2862","173.6","216.76","799","60.03","31"
"05/10/12 11:02:15","74.2998","174.9","217.36","800","60.03","32"
"05/10/12 11:07:15","74.3136","176.0","218.01","801","60.0","32"
"05/10/12 11:12:15","74.3273","176.5","217.63","803","60.03","32"
"05/10/12 11:17:14","74.341","177.6","218.01","809","60.0","32"
"05/10/12 11:22:15","74.355","179.4","217.55","815","60.03","32"
"05/10/12 11:27:15","74.369","180.3","217.86","821","60.0","32"
"05/10/12 11:32:15","74.3831","180.8","214.5","835","60.0","33"
"05/10/12 11:37:15","74.3972","182.0","217.13","829","60.03","33"
"05/10/12 11:42:16","74.4114","181.9","217.35","832","60.03","33"
"05/10/12 11:47:15","74.4257","183.8","217.26","836","60.03","33"
"05/10/12 11:52:15","74.44","183.6","217.83","839","60.07","33"
"05/10/12 11:57:16","74.4544","184.1","218.04","835","60.0","33"
"05/10/12 12:02:14","74.4687","184.7","217.32","840","60.03","33"
"05/10/12 12:07:16","74.4832","185.7","217.01","850","60.03","33"
"05/10/12 12:12:14","74.4977","186.6","217.44","849","60.0","33"
"05/10/12 12:17:15","74.5122","185.5","217.02","844","60.03","34"
"05/10/12 12:22:14","74.5266","186.3","217.63","846","60.03","34"
"05/10/12 12:27:15","74.5411","186.1","217.07","848","60.03","34"
"05/10/12 12:32:15","74.5556","186.4","217.29","847","60.0","34"
"05/10/12 12:37:16","74.5702","185.7","217.96","847","60.03","34"
"05/10/12 12:42:15","74.5845","184.7","217.1","840","60.0","34"
"05/10/12 12:47:14","74.5989","185.7","217.32","848","60.03","34"
"05/10/12 12:52:14","74.6134","185.9","217.37","843","60.03","34"
"05/10/12 12:57:15","74.6279","185.0","217.44","844","60.03","34"
"05/10/12 13:02:15","74.6422","183.3","217.65","833","60.0","35"
"05/10/12 13:07:15","74.6565","182.6","216.93","834","60.0","35"
"05/10/12 13:12:15","74.6706","182.1","216.78","829","60.0","35"
"05/10/12 13:17:15","74.6849","181.4","217.17","831","60.0","35"
"05/10/12 13:22:15","74.6989","180.3","216.45","825","60.03","35"
"05/10/12 13:27:15","74.7131","181.2","217.51","834","60.03","34"
"05/10/12 13:32:16","74.7271","178.9","217.17","820","60.03","35"
"05/10/12 13:37:15","74.7411","178.4","217.71","812","60.03","35"
"05/10/12 13:42:15","74.7549","178.2","216.87","811","60.0","35"
"05/10/12 13:47:14","74.7686","177.1","218.33","807","60.03","34"
"05/10/12 13:52:15","74.7824","174.3","218.3","792","60.0","34"
"05/10/12 13:57:15","74.7959","172.9","218.51","786","60.03","35"
"05/10/12 14:02:15","74.8094","172.4","217.98","790","60.0","35"
"05/10/12 14:07:14","74.8227","170.5","218.02","779","60.0","35"
"05/10/12 14:12:16","74.8361","170.6","218.47","780","60.03","34"
"05/10/12 14:17:14","74.8492","168.0","217.44","769","60.0","34"
"05/10/12 14:22:15","74.8622","166.7","217.76","761","60.0","34"
"05/10/12 14:27:14","74.8751","165.5","217.61","759","60.03","34"
"05/10/12 14:32:15","74.8751","162.9","217.86","744","60.0","33"
"05/10/12 14:37:14","74.8877","161.7","218.25","736","60.0","34"
"05/10/12 14:42:15","74.9002","158.8","217.59","727","60.03","34"
"05/10/12 14:47:14","74.9125","156.5","218.31","720","60.0","34"
"05/10/12 14:52:16","74.9247","154.1","217.26","708","60.03","34"
"05/10/12 14:57:14","74.9366","153.5","216.57","709","60.03","33"
"05/10/12 15:02:15","74.9485","151.1","217.52","694","60.03","33"
"05/10/12 15:07:15","74.9602","148.4","217.52","685","60.03","33"
"05/10/12 15:12:14","74.9716","146.2","217.12","676","60.03","33"
"05/10/12 15:17:15","74.983","143.9","216.87","670","60.03","33"
"05/10/12 15:22:14","74.994","142.2","217.33","656","60.03","32"
"05/10/12 15:27:15","75.0051","139.1","217.08","647","60.0","32"
"05/10/12 15:32:14","75.0157","136.1","217.42","636","60.0","32"
"05/10/12 15:37:15","75.0263","133.1","217.74","620","60.0","32"
"05/10/12 15:42:16","75.0365","130.4","217.21","605","60.03","32"
"05/10/12 15:47:14","75.0465","127.4","217.04","600","60.0","32"
"05/10/12 15:52:14","75.0563","124.8","216.58","582","60.0","32"
"05/10/12 15:57:16","75.0659","121.8","216.03","580","60.03","31"
"05/10/12 16:02:15","75.0752","118.8","216.14","558","60.0","31"
"05/10/12 16:07:15","75.0844","115.0","216.37","546","60.03","31"
"05/10/12 16:12:15","75.0931","111.6","216.42","533","60.07","30"
"05/10/12 16:17:14","75.1017","108.4","217.02","516","60.0","30"
"05/10/12 16:22:15","75.1099","104.2","216.95","494","60.03","30"
"05/10/12 16:27:15","75.1179","100.1","216.82","480","60.03","30"
"05/10/12 16:32:14","75.1255","96.8","216.37","467","60.0","30"
"05/10/12 16:37:16","75.133","93.0","216.67","451","60.0","30"
"05/10/12 16:42:15","75.14","89.8","216.07","434","60.0","29"
"05/10/12 16:47:15","75.1469","86.1","216.36","420","60.03","29"
"05/10/12 16:52:15","75.1534","81.9","216.56","404","60.03","29"
"05/10/12 16:57:14","75.1596","78.1","216.06","382","60.03","29"
"05/10/12 17:02:14","75.1654","73.8","216.34","365","60.07","29"
"05/10/12 17:07:15","75.171","69.6","215.35","348","60.0","29"
"05/10/12 17:12:14","75.1762","65.0","215.6","328","60.03","29"
"05/10/12 17:17:14","75.1811","60.9","215.83","313","60.03","29"
"05/10/12 17:22:14","75.1853","47.1","215.04","426","60.03","29"
"05/10/12 17:27:15","75.1896","64.5","215.06","101","60.07","28"
"05/10/12 17:32:15","75.1935","55.3","215.28","102","60.03","28"
"05/10/12 17:37:16","75.1972","40.3","215.05","217","60.03","28"
"05/10/12 17:42:14","75.2004","35.9","215.16","105","60.03","28"
"05/10/12 17:47:15","75.2034","32.8","215.41","195","60.0","28"
"05/10/12 17:52:15","75.2061","33.9","214.82","187","60.03","28"
"05/10/12 17:57:16","75.2085","31.3","215.3","254","60.03","27"
"05/10/12 18:02:15","75.2105","36.3","214.84","55","60.03","27"
"05/10/12 18:07:15","75.2123","22.6","215.39","223","60.03","27"
"05/10/12 18:12:14","75.2139","21.7","214.47","57","60.03","27"
"05/10/12 18:17:14","75.2152","23.0","214.18","196","60.03","26"
"05/10/12 18:22:14","75.2163","15.2","213.16","175","60.0","25"
"05/10/12 18:27:15","75.2172","0.0","213.64","58","60.03","24"
"05/10/12 18:32:14","75.2178","14.5","213.91","181","60.0","23"
"05/10/12 18:37:15","75.2184","13.1","213.74","32","60.0","22"
"05/10/12 18:42:15","75.2189","0.0","213.72","0","60.03","21"
"05/10/12 18:47:16","75.2192","12.2","214.43","5","60.03","20"
"05/10/12 18:52:15","75.2194","0.0","213.89","0","60.03","20"
"05/10/12 18:57:16","75.2197","0.0","213.94","0","60.03","19"
"05/11/12 06:42:14","75.2217","13.2","214.26","4","60.03","13"
"05/11/12 06:47:15","75.2228","24.5","214.07","283","60.03","13"
"05/11/12 06:52:16","75.2243","27.2","214.19","84","60.03","14"
"05/11/12 06:57:15","75.2259","25.9","214.23","30","60.07","15"
"05/11/12 07:02:15","75.2279","30.2","214.06","111","60.0","15"
"05/11/12 07:07:16","75.2302","33.1","213.82","267","60.0","16"
"05/11/12 07:12:16","75.2323","31.9","213.59","37","60.0","17"
"05/11/12 07:17:15","75.2347","31.4","214.38","134","60.0","17"
"05/11/12 07:22:16","75.2378","38.4","214.96","285","60.07","17"
"05/11/12 07:27:14","75.2409","33.7","214.6","85","60.0","17"
"05/11/12 07:32:16","75.2444","44.1","214.44","358","60.0","18"
"05/11/12 07:37:15","75.2486","38.1","214.42","160","60.03","18"
"05/11/12 07:42:14","75.2532","56.7","214.96","95","60.0","18"
"05/11/12 07:47:15","75.2561","37.0","213.22","293","60.03","18"
"05/11/12 07:52:16","75.2608","62.0","214.89","316","60.0","19"
"05/11/12 07:57:14","75.2664","79.1","215.58","392","60.0","19"
"05/11/12 08:02:15","75.2727","80.4","215.06","393","60.0","19"
"05/11/12 08:07:15","75.2787","77.2","214.89","384","60.0","20"
"05/11/12 08:12:15","75.2848","84.5","214.83","417","60.03","20"
"05/11/12 08:17:16","75.2915","89.0","215.79","435","60.03","21"
"05/11/12 08:22:16","75.2987","93.1","215.6","447","60.03","21"
"05/11/12 08:27:16","75.3058","80.5","215.41","399","60.03","22"
"05/11/12 08:32:14","75.3127","99.8","216.51","479","60.03","22"
"05/11/12 08:37:15","75.3204","100.8","215.45","487","60.03","23"
"05/11/12 08:42:16","75.3285","103.0","215.51","492","60.03","23"
"05/11/12 08:47:15","75.3367","109.2","216.01","518","60.03","23"
"05/11/12 08:52:16","75.3453","111.0","215.52","530","60.03","24"
"05/11/12 08:57:15","75.354","114.4","215.69","540","60.0","24"
"05/11/12 09:07:16","75.3722","120.1","216.19","569","60.03","25"
"05/11/12 09:12:15","75.3818","124.5","216.01","586","60.0","25"
"05/11/12 09:17:14","75.3916","127.7","215.83","599","60.0","26"
"05/11/12 09:22:14","75.4016","130.0","215.89","611","60.03","26"
"05/11/12 09:27:15","75.412","133.8","215.68","629","60.03","26"
"05/11/12 09:32:16","75.4226","136.2","214.82","641","60.0","27"
"05/11/12 09:37:16","75.4332","138.9","215.71","652","60.03","27"
"05/11/12 09:42:15","75.4442","143.7","216.48","670","60.03","27"
"05/11/12 09:47:16","75.4553","140.6","217.07","656","60.03","28"
"05/11/12 09:52:16","75.4666","145.6","216.48","675","60.0","29"
"05/11/12 09:57:16","75.4775","133.9","216.0","626","60.03","29"
"05/11/12 10:02:15","75.4878","132.8","216.74","622","60.0","29"
"05/11/12 10:07:16","75.4986","143.1","216.67","667","60.0","29"
"05/11/12 10:12:15","75.51","142.1","217.02","656","60.0","29"
"05/11/12 10:17:15","75.5214","149.6","217.44","689","60.03","30"
"05/11/12 10:22:16","75.5326","143.8","216.94","666","60.0","29"
"05/11/12 10:27:16","75.5435","132.7","216.83","622","60.03","30"
"05/11/12 10:32:15","75.5551","160.7","217.15","737","60.0","30"
"05/11/12 10:37:15","75.5677","163.5","217.1","749","60.0","30"
"05/11/12 10:42:16","75.5806","167.6","216.98","768","60.03","31"
"05/11/12 10:47:14","75.5936","166.6","217.69","767","60.03","31"
"05/11/12 10:52:15","75.6063","163.8","217.1","754","60.0","32"
"05/11/12 10:57:15","75.6194","170.3","218.4","779","60.07","32"
"05/11/12 11:02:15","75.6325","167.8","217.8","762","60.0","32"
"05/11/12 11:07:16","75.6458","170.0","217.77","778","60.0","32"
"05/11/12 11:12:15","75.6592","172.8","217.59","785","60.03","32"
"05/11/12 11:17:15","75.6727","174.0","217.87","800","60.07","33"
"05/11/12 11:22:16","75.6862","174.0","217.65","790","60.03","33"
"05/11/12 11:27:16","75.6998","175.2","217.36","798","60.03","33"
"05/11/12 11:32:16","75.7133","175.2","217.8","802","60.03","33"
"05/11/12 11:37:16","75.7267","171.8","217.23","781","59.96","33"
"05/11/12 11:42:15","75.7397","165.7","217.69","756","60.0","33"
"05/11/12 11:47:16","75.7527","159.8","217.64","737","60.03","33"
"05/11/12 11:52:16","75.7652","159.7","217.6","734","60.03","33"
"05/11/12 11:57:16","75.7771","154.0","217.07","715","60.07","33"
"05/11/12 12:02:16","75.7891","154.2","217.2","716","60.03","33"
"05/11/12 12:07:15","75.8009","164.4","217.82","750","60.03","33"
"05/11/12 12:12:14","75.814","163.0","217.82","744","60.0","33"
"05/11/12 12:17:15","75.8272","173.5","217.38","796","60.03","33"
"05/11/12 12:22:15","75.8406","170.2","216.68","781","60.03","34"
"05/11/12 12:27:16","75.8542","178.2","217.13","813","60.03","34"
"05/11/12 12:32:14","75.868","172.9","217.03","790","60.0","35"
"05/11/12 12:37:14","75.8813","170.0","217.11","779","60.0","35"
"05/11/12 12:42:15","75.8948","175.2","217.08","799","60.0","35"
"05/11/12 12:47:16","75.9083","171.8","217.96","779","60.0","35"
"05/11/12 12:52:16","75.9195","168.7","217.13","773","60.03","35"
"05/11/12 12:57:15","75.9325","169.7","217.42","779","60.03","35"
"05/11/12 13:02:15","75.9465","175.1","217.55","791","60.03","35"
"05/11/12 13:07:16","75.9575","160.4","217.43","736","60.07","34"
"05/11/12 13:12:15","75.9706","170.3","217.99","779","60.03","34"
"05/11/12 13:17:15","75.9828","177.0","217.28","809","60.03","33"
"05/11/12 13:22:15","75.9937","57.4","215.1","105","60.03","32"
"05/11/12 13:27:15","75.9978","62.5","215.61","167","60.07","31"
"05/11/12 13:32:16","76.0018","36.7","214.56","100","60.0","30"
"05/11/12 13:37:15","76.0044","33.3","214.33","249","60.03","29"
"05/11/12 13:42:16","76.0064","16.5","213.76","17","60.0","29"
"05/11/12 13:47:15","76.008","21.8","213.77","264","60.03","28"
"05/11/12 13:52:16","76.01","26.9","214.39","225","60.07","28"
"05/11/12 13:57:14","76.0131","40.8","214.2","384","60.0","27"
"05/11/12 14:02:16","76.0184","86.0","215.8","421","60.03","27"
"05/11/12 14:07:15","76.0261","118.8","216.18","562","60.03","27"
"05/11/12 14:12:16","76.032","52.5","214.0","172","60.0","28"
"05/11/12 14:17:14","76.0361","44.9","214.79","401","60.03","27"
"05/11/12 14:22:14","76.0424","91.9","215.31","448","60.03","27"
"05/11/12 14:27:15","76.0518","141.1","216.38","657","60.03","28"
"05/11/12 14:32:16","76.0615","91.6","215.73","443","60.0","29"